TimeCDT,TemperatureF,Dew PointF,Humidity,Sea Level PressureIn,VisibilityMPH,Wind Direction,Wind SpeedMPH,Gust SpeedMPH,PrecipitationIn,Events,Conditions,WindDirDegrees,DateUTC
12:53 AM,68.0,66.0,93,29.98,10.0,Calm,Calm,-,N/A,,Clear,0,2013-10-02 05:53:00
1:53 AM,66.9,66.0,97,29.98,7.0,Calm,Calm,-,N/A,,Clear,0,2013-10-02 06:53:00
2:53 AM,66.0,64.9,96,29.97,8.0,Calm,Calm,-,N/A,,Clear,0,2013-10-02 07:53:00
3:53 AM,64.9,64.0,97,29.97,7.0,Calm,Calm,-,N/A,,Clear,0,2013-10-02 08:53:00
4:53 AM,64.0,64.0,100,29.98,4.0,Calm,Calm,-,0.01,,Scattered Clouds,0,2013-10-02 09:53:00
5:53 AM,64.9,64.0,97,29.98,5.0,Calm,Calm,-,N/A,,Clear,0,2013-10-02 10:53:00
6:53 AM,66.0,64.9,96,29.99,8.0,Calm,Calm,-,N/A,,Clear,0,2013-10-02 11:53:00
7:53 AM,66.0,64.9,96,30.01,5.0,Calm,Calm,-,N/A,,Scattered Clouds,0,2013-10-02 12:53:00
8:53 AM,68.0,66.9,96,30.02,8.0,Calm,Calm,-,N/A,,Partly Cloudy,0,2013-10-02 13:53:00
9:53 AM,73.0,69.1,87,30.02,10.0,South,6.9,-,N/A,,Scattered Clouds,180,2013-10-02 14:53:00
10:08 AM,73.4,69.8,88,30.06,10.0,South,6.9,-,N/A,,Mostly Cloudy,180,2013-10-02 15:08:00
10:53 AM,75.9,69.1,79,30.02,10.0,South,11.5,-,N/A,,Mostly Cloudy,190,2013-10-02 15:53:00
11:12 AM,75.2,66.2,73,30.06,10.0,South,12.7,-,N/A,,Overcast,190,2013-10-02 16:12:00
11:53 AM,77.0,68.0,74,30.02,10.0,SSW,8.1,-,0.00,Rain,Light Rain,200,2013-10-02 16:53:00
12:53 PM,77.0,69.1,76,30.00,10.0,South,11.5,-,0.00,,Mostly Cloudy,190,2013-10-02 17:53:00
1:53 PM,77.0,69.1,76,29.97,10.0,South,8.1,-,N/A,,Scattered Clouds,170,2013-10-02 18:53:00
2:53 PM,80.1,68.0,67,29.94,10.0,South,8.1,-,N/A,,Mostly Cloudy,190,2013-10-02 19:53:00
3:53 PM,80.1,66.0,62,29.92,10.0,SSW,9.2,-,N/A,,Partly Cloudy,210,2013-10-02 20:53:00
4:53 PM,80.1,66.9,64,29.91,10.0,SSE,8.1,-,N/A,,Clear,150,2013-10-02 21:53:00
5:53 PM,79.0,66.0,64,29.91,10.0,South,9.2,-,N/A,,Clear,170,2013-10-02 22:53:00
6:53 PM,75.0,66.9,76,29.92,10.0,SSE,8.1,-,N/A,,Unknown,160,2013-10-02 23:53:00
7:53 PM,72.0,66.9,84,29.93,10.0,SSE,6.9,-,N/A,,Clear,150,2013-10-03 00:53:00
8:53 PM,71.1,66.9,87,29.94,10.0,SSE,6.9,-,N/A,,Clear,160,2013-10-03 01:53:00
9:53 PM,70.0,66.9,90,29.94,10.0,Calm,Calm,-,N/A,,Clear,0,2013-10-03 02:53:00
10:53 PM,69.1,66.0,90,29.94,10.0,South,3.5,-,N/A,,Clear,180,2013-10-03 03:53:00
11:53 PM,69.1,66.9,93,29.94,10.0,SSE,6.9,-,N/A,,Clear,150,2013-10-03 04:53:00